Temp
63 63 63 63 63 63 63 63 63 63 63 64 64 64 64 64 64 63 73 84 79 81 83 80 82 80 79 74 75 77 62 60 64 65 68 74 73 78 78 72 75 77 72 73 75
62 62 62 62 62 62 62 62 63 63 63 63 63 63 64 64 63 70 84 82 81 82 79 76 74 75 70 71 72 69 63 66 75 74 71 74 75 74 72 71 71 73 75 75 75
62 61 60 60 60 61 61 61 61 62 62 63 63 64 64 62 70 81 82 81 82 82 83 82 80 76 69 70 70 72 67 75 77 79 78 75 75 79 70 66 72 70 71 73 73
61 61 61 61 61 61 61 60 60 61 62 62 63 64 64 60 67 81 81 81 82 84 83 79 76 70 67 68 74 71 77 78 79 79 79 74 79 75 74 73 79 76 75 73 72
61 61 61 61 61 60 60 60 60 61 61 62 63 64 63 67 77 79 82 82 82 82 80 77 73 71 68 72 72 71 77 80 80 80 79 81 76 75 74 80 80 77 76 73 72
60 60 60 60 60 60 60 60 60 61 61 63 64 65 62 64 78 81 81 80 80 78 79 79 76 77 73 71 70 77 77 77 78 79 78 77 75 77 78 78 76 76 73 74 73
60 60 59 60 60 60 59 59 59 61 61 63 65 67 64 75 80 79 80 78 78 78 77 81 82 76 75 69 79 78 73 73 74 75 75 77 69 71 76 77 73 74 74 74 74
60 60 60 60 59 59 58 58 59 61 62 64 66 60 66 78 77 77 76 76 80 79 79 82 84 75 72 74 74 70 69 61 72 74 75 73 62 71 74 73 71 73 74 74 73
59 59 59 59 59 58 57 57 60 63 64 65 57 57 67 77 74 79 78 79 77 75 76 92 80 71 70 66 62 63 59 63 69 76 75 71 67 72 73 72 69 71 72 73 73
59 59 59 59 58 57 57 58 61 63 65 69 74 61 70 72 77 81 77 82 80 79 77 74 69 64 63 63 56 60 61 64 65 73 73 68 68 70 73 72 70 70 71 72 73
59 58 58 58 57 56 53 60 65 64 61 67 65 66 73 79 78 80 81 81 76 75 66 67 66 64 67 67 66 63 61 65 73 77 72 70 68 69 71 72 70 69 70 71 73
59 58 58 57 57 56 51 67 66 68 62 70 70 71 74 73 72 78 80 74 70 66 65 65 62 71 71 70 67 63 63 64 72 77 72 71 68 71 71 71 73 71 71 72 74
58 58 57 57 56 54 59 66 70 66 59 69 70 70 73 76 72 75 78 70 68 62 61 61 68 74 72 66 66 61 60 64 68 73 73 68 65 67 71 72 75 75 75 75 75
58 58 56 55 61 61 68 68 68 68 56 66 66 75 73 73 69 80 77 76 67 67 65 62 69 70 65 67 68 55 69 71 69 64 59 67 55 62 62 67 70 75 75 76 77
58 57 55 54 60 67 73 66 65 72 49 73 70 79 72 72 69 74 77 76 69 68 66 66 65 65 64 71 71 70 71 67 67 60 60 61 57 61 60 62 65 71 75 77 78
57 56 55 53 52 66 67 67 72 59 52 68 72 68 67 68 70 75 74 77 73 67 63 67 70 67 70 72 72 71 67 62 56 55 50 56 57 57 61 66 68 70 75 77 79
55 54 52 61 70 66 68 70 59 52 66 68 64 68 63 61 68 69 65 63 61 54 52 62 64 69 70 64 67 65 56 49 49 47 50 49 54 62 66 72 72 73 74 77 80
54 52 53 61 60 66 69 65 54 63 62 67 67 67 64 65 63 66 62 60 61 58 52 53 57 66 74 63 61 55 54 50 45 44 50 49 51 65 70 72 71 74 76 77 79
53 54 58 65 60 63 67 55 56 58 67 67 64 63 61 65 64 64 59 60 61 58 56 53 56 70 69 69 65 57 52 52 47 39 47 49 58 67 70 72 72 74 73 74 78
58 63 68 67 65 68 62 53 58 65 68 65 58 61 58 62 62 60 60 64 64 65 60 57 53 60 69 70 69 63 60 52 50 44 40 48 49 54 64 66 68 70 73 73 74
62 69 72 66 68 66 58 56 63 70 70 66 60 59 57 58 57 58 58 66 69 68 64 55 55 60 61 59 55 59 56 50 48 45 44 43 52 59 61 63 63 68 70 72 74
60 64 71 71 65 49 56 58 64 70 72 70 67 63 60 60 58 58 59 61 71 65 60 55 53 49 55 62 60 57 54 50 49 47 42 45 52 62 62 63 66 64 66 68 71
58 58 68 71 57 55 58 63 66 69 66 67 66 66 63 58 56 59 63 70 70 66 58 58 50 46 51 56 60 56 55 48 48 46 46 47 53 64 62 63 65 64 65 65 68
59 61 62 59 53 52 54 59 63 72 67 66 63 64 61 59 58 56 62 68 70 65 68 63 47 50 48 51 53 54 58 54 51 48 46 49 56 63 61 59 62 64 65 66 67
53 51 51 53 56 52 51 56 61 63 67 66 63 63 58 51 53 54 58 63 67 67 62 60 52 48 53 56 55 57 60 58 53 54 52 56 56 58 60 60 62 64 67 67 67
52 50 51 50 50 52 52 54 59 63 62 60 61 63 60 53 57 55 56 53 59 59 54 53 51 47 50 56 56 55 60 59 60 58 56 57 57 61 63 64 64 65 66 67 67
51 52 53 50 51 51 52 56 62 60 63 65 64 61 58 61 62 62 62 61 60 58 54 53 49 45 43 48 51 49 56 58 60 61 60 55 59 62 62 64 64 64 65 65 66
MSLP
1014.44 1014.03 1013.65 1013.34 1013.09 1012.79 1012.48 1012.23 1011.87 1011.39 1010.80 1010.19 1009.75 1009.47 1009.38 1009.20 1008.72 1008.45 1007.03 1004.64 1005.15 1005.92 1006.55 1007.25 1007.55 1007.81 1008.10 1008.27 1008.20 1008.05 1008.12 1008.10 1007.66 1007.70 1007.49 1007.71 1008.08 1008.68 1009.01 1009.78 1010.12 1010.45 1011.13 1011.78 1012.66
1014.26 1013.85 1013.55 1013.25 1013.00 1012.74 1012.38 1012.03 1011.70 1011.30 1010.71 1010.12 1009.73 1009.37 1009.01 1009.03 1008.47 1007.24 1004.33 1004.18 1004.75 1005.58 1006.62 1007.02 1007.60 1007.95 1008.13 1007.95 1007.91 1007.87 1007.62 1007.23 1006.61 1006.35 1006.72 1007.05 1007.66 1008.27 1009.02 1009.96 1010.25 1010.58 1011.06 1011.83 1012.73
1014.11 1013.84 1013.55 1013.23 1012.88 1012.53 1012.30 1011.99 1011.59 1011.12 1010.59 1009.96 1009.56 1009.30 1008.83 1008.71 1007.91 1005.11 1004.16 1004.22 1004.79 1005.59 1006.15 1006.72 1007.13 1007.58 1007.80 1007.64 1007.59 1007.24 1006.88 1006.30 1006.02 1005.67 1005.90 1006.63 1007.38 1007.85 1008.87 1009.76 1009.52 1010.21 1011.17 1011.81 1012.72
1013.95 1013.60 1013.30 1012.95 1012.62 1012.33 1011.99 1011.72 1011.50 1011.01 1010.45 1009.88 1009.41 1008.95 1008.66 1008.42 1007.07 1004.79 1004.51 1004.73 1005.26 1005.69 1006.27 1006.81 1007.32 1007.48 1007.52 1007.22 1007.20 1006.87 1006.28 1005.93 1005.67 1005.26 1005.55 1006.28 1006.84 1007.51 1007.98 1008.29 1008.57 1009.61 1010.55 1011.73 1012.18
1013.66 1013.21 1012.87 1012.55 1012.30 1012.02 1011.72 1011.41 1011.18 1010.84 1010.34 1009.85 1009.42 1008.87 1008.23 1007.75 1005.85 1004.81 1004.85 1005.33 1005.89 1006.07 1006.30 1006.62 1007.04 1007.21 1007.17 1006.88 1006.78 1006.60 1006.28 1005.90 1005.60 1005.22 1005.26 1005.54 1006.16 1006.81 1007.35 1007.59 1008.18 1009.27 1010.39 1011.29 1012.38
1013.46 1013.03 1012.60 1012.17 1011.87 1011.63 1011.37 1011.14 1010.83 1010.48 1010.17 1009.75 1009.42 1009.01 1008.52 1007.13 1005.00 1004.87 1005.32 1005.72 1005.87 1006.27 1006.45 1006.49 1006.51 1006.55 1006.70 1006.67 1006.60 1006.66 1006.40 1005.82 1005.48 1005.34 1005.05 1005.31 1005.78 1006.41 1006.69 1007.21 1008.33 1009.15 1010.14 1010.79 1011.59
1013.21 1012.77 1012.26 1011.84 1011.45 1011.23 1010.98 1010.81 1010.53 1010.15 1009.89 1009.70 1009.42 1009.04 1008.12 1005.65 1004.79 1005.07 1005.46 1005.60 1005.62 1006.06 1006.38 1006.02 1005.86 1006.34 1006.53 1006.60 1006.40 1006.45 1006.23 1005.95 1005.80 1005.66 1005.62 1005.44 1006.25 1006.31 1006.56 1007.25 1008.10 1008.95 1009.91 1010.76 1011.27
1012.99 1012.42 1011.90 1011.45 1011.11 1010.83 1010.56 1010.42 1010.17 1009.80 1009.67 1009.56 1009.41 1009.00 1007.17 1004.98 1005.00 1005.44 1005.74 1005.90 1005.94 1006.28 1006.16 1005.75 1005.86 1006.16 1006.34 1006.79 1006.81 1006.88 1006.71 1006.54 1005.87 1005.81 1005.67 1005.89 1006.15 1006.19 1006.53 1007.26 1008.31 1009.00 1009.67 1010.41 1010.93
1012.68 1012.15 1011.59 1011.20 1010.79 1010.41 1010.16 1009.97 1009.60 1009.34 1009.42 1009.38 1009.36 1008.76 1006.48 1004.92 1004.94 1004.68 1005.00 1005.17 1005.52 1006.19 1006.34 1005.88 1005.87 1006.56 1006.95 1007.11 1007.30 1007.50 1007.15 1006.91 1005.81 1005.52 1005.58 1005.92 1005.61 1005.79 1006.81 1007.50 1008.10 1008.86 1009.39 1010.03 1010.54
1012.21 1011.71 1011.30 1010.88 1010.53 1010.13 1009.65 1009.39 1009.26 1009.19 1009.31 1009.20 1008.71 1008.47 1005.94 1004.76 1004.06 1003.87 1004.35 1004.82 1005.02 1005.58 1006.47 1006.24 1006.46 1006.73 1007.21 1007.28 1007.74 1007.49 1007.07 1006.73 1006.01 1005.47 1005.49 1005.58 1005.55 1006.10 1006.66 1007.20 1007.52 1008.35 1009.05 1009.64 1010.04
1011.87 1011.31 1010.79 1010.40 1010.17 1009.92 1009.28 1009.02 1009.29 1009.12 1008.70 1007.66 1007.26 1006.80 1005.67 1004.55 1003.96 1003.58 1003.60 1004.21 1004.46 1004.95 1005.66 1006.16 1006.86 1006.83 1006.76 1006.66 1006.79 1007.04 1007.14 1006.72 1005.34 1004.89 1005.71 1005.01 1005.30 1005.68 1006.29 1007.05 1007.54 1008.35 1008.67 1008.89 1009.13
1011.58 1011.03 1010.54 1010.22 1009.98 1009.78 1009.71 1008.80 1008.06 1007.89 1007.70 1006.56 1006.46 1006.12 1005.22 1004.70 1004.31 1003.46 1003.27 1003.89 1004.45 1005.25 1005.76 1006.46 1006.44 1005.72 1006.02 1006.15 1006.59 1006.87 1006.73 1006.06 1005.02 1004.77 1005.57 1005.01 1005.23 1005.38 1005.91 1005.56 1006.02 1007.09 1007.63 1008.03 1008.36
1011.22 1010.66 1010.21 1009.82 1009.47 1009.43 1009.02 1007.83 1007.24 1007.33 1007.51 1005.99 1005.62 1005.22 1004.52 1004.63 1004.17 1003.52 1003.34 1003.81 1004.48 1005.22 1005.83 1006.24 1005.71 1005.30 1005.52 1005.66 1006.08 1006.26 1006.38 1005.66 1005.29 1005.13 1005.13 1005.45 1005.27 1004.94 1004.86 1005.11 1005.72 1006.10 1006.14 1006.96 1007.12
1010.87 1010.38 1009.86 1009.42 1009.61 1008.80 1007.94 1006.99 1006.78 1006.87 1006.92 1005.72 1004.82 1003.92 1004.21 1004.12 1003.95 1003.38 1003.22 1003.73 1004.69 1005.27 1005.97 1006.00 1005.29 1005.08 1005.15 1005.40 1005.60 1005.72 1005.16 1005.44 1005.75 1005.94 1006.04 1005.98 1006.27 1005.44 1005.00 1004.95 1004.70 1004.87 1005.43 1005.91 1006.48
1010.52 1010.05 1009.71 1009.57 1009.22 1008.39 1007.12 1006.63 1006.36 1006.56 1006.69 1005.10 1003.87 1003.04 1003.61 1003.92 1003.77 1003.50 1003.36 1003.47 1004.56 1005.34 1005.99 1005.80 1005.25 1004.96 1004.93 1004.64 1004.97 1005.02 1004.95 1005.71 1006.19 1006.88 1007.06 1006.72 1007.22 1005.44 1005.06 1004.68 1004.26 1004.27 1004.20 1004.76 1005.23
1010.03 1009.70 1009.54 1009.49 1009.24 1007.21 1006.54 1006.33 1006.36 1006.86 1006.21 1004.63 1003.54 1003.38 1003.72 1003.85 1003.62 1003.54 1003.66 1003.88 1004.80 1005.49 1005.79 1005.68 1004.99 1004.72 1004.24 1003.90 1004.35 1004.93 1005.54 1006.68 1007.70 1008.25 1008.49 1007.31 1007.34 1005.88 1005.09 1004.45 1003.62 1003.20 1003.29 1003.64 1004.28
1009.53 1009.24 1009.34 1008.76 1008.03 1006.90 1006.56 1006.48 1007.19 1007.15 1006.16 1005.19 1004.54 1004.13 1004.37 1004.51 1004.28 1004.14 1004.49 1005.06 1005.79 1006.37 1006.82 1005.97 1005.26 1004.70 1004.38 1004.33 1004.58 1005.27 1006.71 1008.09 1009.22 1009.90 1009.39 1008.12 1007.86 1005.39 1004.36 1003.60 1003.33 1002.52 1002.63 1002.77 1003.39
1008.89 1008.51 1008.56 1008.11 1007.40 1006.92 1006.90 1007.25 1007.69 1007.25 1006.26 1005.42 1005.14 1004.89 1005.06 1005.14 1005.29 1005.27 1005.39 1006.12 1006.32 1006.64 1007.54 1007.20 1006.10 1005.21 1004.70 1004.71 1005.05 1005.99 1007.19 1008.28 1009.58 1010.87 1010.01 1009.00 1007.69 1004.62 1003.91 1003.41 1002.80 1002.03 1001.90 1002.60 1003.10
1008.31 1008.36 1008.30 1007.31 1007.18 1007.48 1007.59 1008.26 1008.00 1007.15 1006.20 1005.83 1005.63 1005.85 1005.81 1005.75 1005.77 1006.02 1006.46 1006.63 1006.63 1006.70 1007.24 1007.47 1006.76 1005.72 1005.29 1005.05 1005.36 1006.11 1007.30 1008.48 1009.97 1011.21 1010.75 1009.48 1007.53 1005.18 1003.78 1003.56 1003.27 1002.67 1002.58 1002.69 1002.84
1008.61 1008.31 1007.93 1007.12 1007.17 1007.33 1007.87 1008.73 1007.85 1006.81 1005.90 1005.85 1006.27 1006.62 1006.94 1006.74 1006.67 1006.71 1007.08 1006.78 1006.79 1006.78 1006.89 1007.88 1007.70 1006.92 1006.18 1005.68 1005.90 1006.33 1007.60 1008.85 1010.02 1011.42 1011.52 1010.19 1008.86 1007.20 1005.55 1004.58 1004.15 1003.63 1003.24 1003.37 1003.46
1008.79 1008.76 1008.06 1007.41 1007.36 1008.02 1009.27 1008.89 1007.62 1006.35 1005.91 1005.89 1006.35 1006.86 1007.35 1007.49 1007.61 1007.75 1008.00 1007.27 1007.14 1007.04 1006.99 1007.94 1008.34 1008.10 1007.45 1007.48 1007.65 1007.62 1008.34 1009.79 1010.95 1011.44 1011.62 1010.86 1009.36 1007.36 1006.84 1006.02 1005.35 1004.76 1003.95 1003.52 1003.31
1009.57 1009.75 1008.11 1007.41 1008.29 1010.00 1009.90 1009.03 1007.82 1006.71 1006.24 1006.30 1006.56 1007.03 1007.52 1007.90 1008.22 1008.16 1008.14 1007.83 1007.31 1007.27 1007.90 1008.77 1009.46 1009.59 1009.11 1008.35 1008.42 1008.32 1008.93 1009.75 1010.93 1011.86 1011.71 1010.78 1008.59 1007.45 1006.97 1006.89 1006.45 1006.20 1005.02 1004.43 1003.87
1011.10 1010.52 1008.34 1008.07 1009.92 1010.78 1009.98 1009.05 1008.13 1007.37 1007.21 1007.00 1007.36 1007.54 1007.79 1008.37 1008.73 1008.46 1008.22 1007.80 1007.62 1007.87 1008.48 1009.01 1010.20 1010.59 1010.01 1009.70 1008.88 1009.06 1009.25 1009.82 1010.47 1010.94 1011.14 1010.85 1008.41 1007.33 1007.03 1007.30 1007.12 1006.66 1006.08 1005.30 1004.50
1012.16 1011.98 1010.84 1010.46 1011.46 1011.28 1010.90 1009.99 1008.77 1007.84 1007.85 1007.72 1008.00 1007.92 1008.24 1008.80 1008.86 1008.83 1008.55 1008.19 1008.20 1008.47 1008.76 1009.11 1011.08 1011.45 1011.19 1010.67 1010.17 1009.80 1009.29 1009.47 1009.99 1010.57 1010.72 1009.90 1008.44 1007.65 1007.79 1007.64 1007.46 1007.04 1006.70 1006.09 1005.57
1013.36 1014.57 1014.26 1013.24 1012.71 1012.27 1011.53 1010.67 1009.74 1008.93 1008.41 1008.20 1008.52 1008.72 1008.86 1009.22 1009.36 1009.26 1009.17 1009.00 1008.69 1008.91 1009.32 1010.12 1011.46 1011.65 1011.20 1010.59 1010.32 1009.66 1009.19 1009.09 1009.43 1009.28 1009.52 1008.66 1008.64 1008.16 1008.11 1008.25 1008.01 1007.54 1007.08 1006.69 1006.50
1015.33 1015.72 1014.82 1014.25 1013.48 1012.65 1012.05 1011.33 1010.54 1009.77 1009.23 1009.05 1009.05 1009.01 1009.05 1009.30 1009.35 1009.49 1009.59 1009.78 1009.50 1009.65 1010.22 1011.04 1011.80 1012.10 1011.61 1010.60 1010.34 1009.74 1008.81 1008.44 1008.36 1008.29 1008.35 1008.20 1008.12 1007.86 1007.95 1008.19 1008.04 1007.76 1007.68 1007.48 1007.37
1016.25 1016.05 1015.64 1015.14 1014.24 1013.47 1012.72 1011.79 1011.10 1010.68 1009.95 1009.57 1009.43 1009.38 1009.44 1009.54 1009.62 1009.33 1009.44 1009.53 1009.60 1010.27 1011.09 1011.78 1012.30 1013.10 1012.42 1011.24 1010.36 1009.63 1007.86 1007.29 1007.24 1007.40 1007.64 1007.83 1007.54 1007.87 1008.01 1008.04 1007.90 1007.71 1007.75 1007.71 1007.57
Wind_Speed
16 16 16 16 16 16 15 14 15 15 16 18 18 17 14 13 7 3 6 7 9 18 19 9 5 4 1 2 3 1 3 1 2 5 3 8 4 3 7 10 2 4 6 7 15
16 17 17 16 16 15 15 15 15 15 17 18 17 17 16 12 3 7 8 14 25 21 12 12 7 5 2 1 1 2 4 2 2 5 5 8 5 7 5 7 3 5 7 15 15
17 16 17 17 16 16 15 14 15 15 17 17 17 16 15 10 3 4 2 17 24 12 7 6 6 3 1 2 1 2 2 3 4 3 8 9 4 3 11 4 8 13 11 17 15
17 17 16 16 16 16 16 15 14 15 16 17 17 17 17 1 2 4 9 18 19 7 10 6 4 1 2 3 3 3 2 3 0 2 6 9 8 6 9 6 10 10 17 15 16
18 17 17 16 16 16 15 15 15 14 15 16 16 16 4 3 7 2 12 17 11 5 6 5 3 3 2 1 2 2 3 2 5 3 5 7 8 8 12 1 10 14 16 18 13
18 18 18 18 17 16 15 14 14 15 14 14 14 14 1 2 2 10 15 12 5 4 5 5 6 5 2 1 2 3 1 3 5 4 3 6 4 9 6 11 13 16 17 16 16
18 18 18 17 17 16 15 15 15 15 13 11 10 3 1 12 6 8 15 7 4 7 5 6 5 2 4 1 1 2 3 2 2 3 2 4 3 6 2 12 15 17 16 14 14
18 18 18 17 17 17 16 16 15 15 12 9 5 1 7 2 7 8 5 3 3 5 3 7 5 1 3 2 4 3 4 6 2 2 1 3 6 4 7 15 13 15 14 14 13
18 18 18 17 17 17 17 17 16 11 6 2 1 1 8 1 3 8 8 6 5 3 5 8 2 2 1 3 4 6 3 1 7 7 3 5 6 7 10 12 14 14 14 13 12
18 17 17 17 16 17 19 15 2 4 2 3 2 3 5 2 3 3 6 6 4 7 5 4 4 3 4 5 3 5 4 2 6 3 4 4 9 5 12 14 16 16 14 13 14
19 18 17 16 13 14 9 4 5 3 2 6 4 3 5 7 3 3 5 7 4 5 3 2 4 7 9 7 3 1 2 7 9 6 3 8 6 9 12 11 12 13 14 14 17
18 17 16 14 12 9 2 5 4 3 7 6 3 5 5 2 4 4 4 4 4 5 3 7 3 7 3 3 4 3 4 8 10 6 4 2 12 4 12 16 18 18 17 17 14
18 17 15 13 11 1 0 3 4 3 3 6 5 4 4 7 5 6 5 3 3 3 3 6 6 1 3 1 2 4 5 5 8 2 4 3 9 4 3 7 12 18 20 18 20
18 16 14 14 3 2 4 1 5 6 6 5 2 4 4 3 2 4 3 6 2 7 6 4 4 3 2 4 6 4 7 9 2 2 5 3 8 8 2 8 9 18 19 19 19
18 15 11 6 2 0 3 5 1 5 7 7 2 3 3 6 1 4 2 5 7 5 6 7 3 4 4 7 8 12 2 1 3 2 4 1 2 10 4 6 10 12 19 20 20
19 14 8 2 0 6 7 5 4 8 4 7 2 0 3 3 2 2 3 6 3 4 3 6 2 3 6 3 7 1 5 6 6 4 2 5 5 8 4 6 7 5 15 19 18
20 13 3 1 2 5 4 5 7 7 3 8 4 6 3 2 4 3 3 4 2 3 4 5 3 5 1 4 3 7 7 3 4 5 7 3 5 12 5 9 8 12 13 17 18
21 3 6 4 4 5 4 7 9 2 5 3 4 5 5 5 5 6 3 4 3 5 4 3 7 5 7 1 4 1 7 8 7 4 5 4 6 6 4 9 8 5 8 12 17
14 1 0 4 4 1 6 7 5 4 4 6 3 8 8 5 3 4 5 1 2 2 6 3 4 6 1 3 3 2 1 3 8 4 4 5 8 10 6 8 10 6 4 10 14
2 3 4 3 2 5 7 3 3 4 3 2 4 3 6 8 5 4 6 2 2 2 3 4 1 2 7 4 5 6 2 3 5 4 1 5 5 7 15 21 12 9 3 2 5
3 5 5 4 2 6 4 4 5 4 1 4 2 3 2 4 4 5 5 4 6 4 4 4 3 7 2 3 2 6 5 6 6 3 6 2 7 4 7 10 10 7 5 1 6
3 4 4 3 6 2 1 2 5 4 7 6 4 3 2 4 5 3 3 2 8 2 3 3 4 2 6 4 2 2 2 4 6 2 1 3 8 1 2 7 7 7 8 7 5
3 2 4 4 4 4 6 4 2 7 5 4 5 5 5 3 4 2 2 2 9 5 2 3 3 4 11 8 6 5 3 4 4 3 3 5 8 1 7 6 8 9 9 8 9
3 3 6 6 1 3 4 5 5 4 4 4 4 4 5 6 5 1 5 2 6 3 7 8 3 6 7 8 4 4 3 2 4 3 2 7 8 6 9 7 8 9 8 8 8
5 1 2 3 4 3 1 1 4 5 4 8 4 4 2 2 1 1 1 5 4 7 4 5 1 4 5 6 3 4 6 3 4 5 5 6 6 0 5 5 5 5 6 10 10
4 4 5 0 3 2 4 3 4 6 3 3 4 2 2 1 4 4 3 4 6 1 3 2 2 4 4 4 6 5 9 7 7 3 7 5 7 3 1 3 4 4 5 5 6
3 1 3 4 4 2 2 2 3 2 2 3 1 1 2 3 4 5 6 4 5 6 4 3 6 3 5 3 4 6 9 6 3 4 4 4 4 4 2 4 4 5 5 6 5
Wind_Direction
334 333 332 332 330 330 332 332 330 327 322 319 322 326 331 335 323 37 244 213 169 147 141 145 148 120 170 226 228 265 56 61 205 150 222 132 139 108 93 127 192 158 140 149 138
332 332 331 330 327 328 329 330 327 324 319 318 321 325 325 337 245 214 264 140 140 144 145 156 164 161 246 311 0 223 84 311 315 187 170 155 138 133 107 145 230 166 77 121 140
333 330 327 325 323 324 324 325 322 321 317 317 320 324 321 328 308 265 329 146 149 145 124 134 125 191 257 156 214 320 129 195 349 65 126 150 117 133 120 190 212 175 151 148 155
329 327 323 321 320 319 319 319 317 315 314 316 320 321 318 271 225 325 131 146 147 140 141 123 121 261 293 297 124 357 317 278 353 30 128 145 148 169 173 197 211 155 157 160 167
327 324 320 319 317 315 315 313 312 309 311 315 320 324 340 3 252 146 136 140 152 144 178 148 146 190 264 315 85 135 303 46 303 137 122 151 166 178 205 156 146 140 159 167 178
328 324 321 319 316 312 310 307 304 305 307 311 317 319 357 272 117 139 144 139 181 150 171 173 203 214 301 242 167 42 290 273 285 254 167 136 147 155 208 142 144 152 171 171 174
328 325 322 319 316 312 309 304 301 300 300 303 309 311 82 237 123 140 154 192 188 157 161 243 229 331 162 134 345 342 345 355 225 308 296 117 90 230 171 152 154 165 170 171 174
327 322 322 319 315 312 309 305 300 293 292 285 285 310 243 338 121 135 192 190 257 226 269 289 210 141 86 98 30 36 17 21 296 323 299 80 253 240 152 146 164 169 173 174 181
322 325 322 319 316 314 310 304 297 284 240 195 127 99 270 49 220 183 166 182 184 186 228 271 56 166 53 102 19 11 277 155 308 205 259 185 260 190 156 157 162 175 178 187 181
324 323 322 319 317 317 312 297 235 112 133 202 267 26 280 206 276 174 189 166 185 170 165 165 58 43 22 74 249 268 311 213 241 247 205 261 267 166 175 167 180 175 180 190 196
325 322 319 320 317 326 337 101 28 13 155 207 198 245 288 280 281 210 152 136 130 64 174 38 96 225 216 196 190 322 221 272 275 207 229 232 268 200 179 187 186 178 190 190 204
325 322 318 315 315 313 251 89 169 176 314 235 246 277 261 260 323 305 130 118 125 182 109 24 230 239 203 170 173 188 259 255 283 200 192 305 254 215 185 211 189 181 190 203 207
326 325 321 322 331 140 349 209 92 142 130 299 189 193 228 140 215 249 133 115 122 153 136 155 238 108 200 240 210 225 206 237 210 28 223 11 307 281 212 209 190 195 197 198 199
328 327 325 325 334 285 280 201 305 181 57 309 306 276 124 179 277 230 231 131 58 204 156 228 282 246 172 224 159 282 198 251 245 60 237 78 283 313 326 251 210 194 194 199 200
329 329 325 339 259 292 286 327 282 60 55 299 270 149 135 140 267 354 248 41 167 175 114 253 242 231 231 221 161 235 122 106 176 138 21 215 43 267 347 295 252 206 197 198 200
330 324 326 142 273 251 309 323 59 44 28 332 309 300 117 9 328 13 111 49 122 87 354 235 269 215 223 276 182 4 94 56 52 78 58 243 139 287 260 249 289 198 201 193 197
326 312 238 331 228 300 309 43 39 81 313 321 333 4 90 338 353 49 90 45 118 59 339 330 288 305 297 338 26 73 58 349 358 10 216 34 70 245 260 285 249 264 203 191 195
326 334 203 234 306 346 51 50 64 273 285 324 360 352 71 3 13 10 58 50 37 78 84 59 345 1 341 143 232 107 151 156 184 200 258 153 232 249 226 319 326 285 179 181 189
322 213 134 282 208 92 71 54 190 187 284 331 353 30 355 10 86 67 30 88 206 217 121 94 291 318 327 317 115 313 30 180 101 11 57 294 297 312 315 359 354 357 128 178 187
44 37 1 352 152 61 73 209 230 211 289 77 95 29 22 340 54 51 8 347 34 37 159 204 65 321 292 23 10 85 166 23 360 129 172 307 294 254 334 321 330 320 257 159 216
41 52 303 340 43 45 99 246 282 255 292 78 118 67 18 9 49 19 339 334 1 347 65 120 102 288 12 53 247 355 14 52 115 93 150 167 266 223 287 303 321 350 26 35 215
58 54 308 21 45 44 78 253 306 336 13 38 85 88 83 39 33 74 65 260 326 274 47 32 127 245 236 292 297 345 60 115 109 249 98 142 270 255 355 339 345 353 7 357 351
64 273 326 77 78 336 314 308 348 9 25 30 32 45 31 63 76 79 355 302 2 53 121 165 17 16 352 354 356 43 336 99 96 81 200 130 263 298 27 26 6 4 3 357 2
63 34 337 44 21 108 3 354 354 10 50 52 42 66 62 31 9 139 355 321 343 75 48 85 110 159 179 211 183 308 311 77 106 90 208 230 286 335 337 3 358 357 360 17 24
24 23 181 339 356 32 20 326 349 7 17 29 37 60 107 115 26 287 272 321 342 342 46 93 216 189 247 230 218 236 239 274 232 200 165 249 234 353 291 320 316 309 360 28 15
66 27 356 355 300 6 356 7 9 325 20 356 88 326 51 190 204 227 197 208 237 326 100 31 241 176 272 269 226 264 254 227 238 210 265 275 278 173 271 302 303 326 346 26 6
336 355 99 318 352 63 279 312 334 317 336 52 290 191 292 292 293 250 207 228 225 192 175 159 140 107 265 329 327 300 232 195 188 185 198 189 237 185 207 253 262 288 306 313 330